Wind_Speed
10 10 10 9 9 10 11 11 12 12 12 13 14 14 14 14 14 14 14 13 13 12 12 11 11 10 10 9 9 9 8 7 7 7 7 6 6 6 6 6 6 6 6
10 11 11 10 10 11 12 12 12 13 14 14 15 16 16 16 15 15 15 14 14 13 13 12 12 11 11 10 10 10 9 9 8 8 7 7 7 6 6 6 6 5 4
12 13 13 12 12 12 14 14 14 14 15 16 17 17 18 17 17 17 16 16 15 14 13 13 13 12 12 11 11 11 10 10 9 9 8 7 7 7 7 6 5 5 4
14 14 14 14 14 14 14 16 17 17 17 18 18 19 18 17 17 18 18 18 17 16 15 14 13 13 12 12 12 11 11 10 10 9 8 8 7 7 7 6 5 4 4
15 15 14 15 15 16 16 18 19 19 19 19 20 20 19 19 19 20 20 19 19 18 17 16 15 14 13 13 12 12 12 11 10 9 9 8 7 7 7 6 6 4 4
16 16 17 17 17 17 18 20 20 21 22 22 21 21 21 21 21 21 21 20 20 20 19 18 16 15 14 13 13 13 12 11 10 10 9 8 8 7 7 7 6 5 5
17 18 19 19 19 20 21 22 23 24 24 25 24 23 24 23 23 23 23 22 21 20 20 19 18 16 15 14 13 13 12 11 11 10 9 8 8 8 7 7 7 6 5
18 18 19 20 21 22 23 24 26 26 27 28 27 26 26 25 25 25 25 25 23 22 21 19 19 18 17 16 15 14 13 12 11 11 10 9 9 8 8 8 8 7 7
17 17 18 20 21 22 23 24 26 27 29 30 30 29 29 27 27 27 27 27 25 24 23 21 20 20 19 17 16 15 14 13 12 12 11 11 10 9 8 8 9 9 8
16 17 18 19 20 21 22 23 24 26 28 29 30 31 31 31 30 29 28 27 27 26 25 24 22 21 21 19 18 17 16 15 14 12 12 12 11 10 9 9 9 10 9
15 15 16 17 18 19 20 21 23 24 26 27 28 29 30 31 32 32 31 29 28 28 28 27 25 23 22 21 20 19 18 17 16 14 13 13 12 11 10 9 10 11 11
13 14 15 15 16 17 19 20 21 22 23 25 26 27 28 30 31 32 32 31 30 30 29 29 27 26 25 23 21 20 20 19 17 16 15 14 13 12 11 11 11 11 11
13 13 14 14 15 16 17 18 20 21 22 22 24 25 26 27 29 31 32 31 31 31 30 28 28 27 27 25 22 21 21 21 20 18 17 16 15 14 13 12 12 12 12
11 12 13 13 14 15 16 17 18 19 20 21 22 23 24 25 26 28 30 31 31 31 30 29 29 28 27 26 25 23 21 22 22 21 19 17 17 15 14 13 13 13 13
11 11 12 13 13 14 15 16 17 18 18 19 20 20 20 21 23 24 26 28 30 31 31 30 28 28 28 27 26 25 24 22 22 22 21 19 18 17 16 15 15 15 15
10 11 12 13 14 14 15 15 15 15 16 17 18 19 19 19 20 22 23 25 26 28 29 30 30 28 28 27 27 27 26 24 24 23 22 21 20 19 18 17 16 17 16
10 11 12 13 14 14 14 15 15 15 15 15 16 17 18 18 19 19 21 22 24 25 28 29 29 30 29 28 27 26 27 26 25 24 24 23 22 21 20 19 19 18 18
10 11 12 13 13 14 14 14 14 14 14 14 14 14 15 16 17 17 19 20 22 24 26 27 29 30 30 29 28 27 28 27 27 26 25 25 24 24 23 22 21 20 20
10 11 12 13 13 14 14 14 15 15 14 14 13 12 13 14 14 15 16 18 20 21 24 26 28 30 30 30 29 28 28 28 27 28 27 27 26 25 24 23 23 22 21
9 11 12 14 14 14 15 15 15 15 15 14 13 12 12 12 13 14 14 15 17 19 21 23 26 28 29 30 29 29 28 29 29 28 28 28 28 27 25 25 24 24 23
9 11 13 14 15 15 15 15 16 16 15 14 13 12 11 11 11 12 13 14 16 17 19 21 24 25 27 28 29 29 28 28 29 29 28 29 29 28 28 27 26 25 25
10 12 13 14 15 15 16 16 16 16 16 15 14 13 12 11 10 10 11 12 14 15 17 19 22 24 25 27 28 28 28 28 28 30 29 29 30 30 30 29 28 27 27
10 12 13 14 15 15 16 16 16 16 16 16 15 14 12 11 10 10 10 10 12 13 14 17 19 21 23 25 27 28 28 28 29 29 30 29 30 30 30 30 30 30 29
10 12 13 14 15 15 16 16 17 17 17 16 16 14 12 11 10 9 8 8 9 10 12 14 16 18 21 23 25 27 27 27 27 28 29 30 31 32 31 31 32 32 31
10 11 13 14 15 15 16 16 17 17 17 16 16 15 13 12 10 8 7 6 6 7 8 10 13 16 19 21 23 24 25 25 25 27 28 30 32 33 33 32 32 32 32
9 11 12 13 14 16 16 16 17 17 17 16 16 15 14 13 11 9 8 6 5 5 5 7 10 12 15 18 20 22 23 23 24 25 27 29 31 33 33 33 33 33 33
Wind_Direction
291 287 285 282 278 268 257 250 249 246 241 236 234 231 228 227 226 227 226 227 229 227 226 228 231 233 236 240 245 248 247 251 258 261 268 273 279 285 293 303 309 316 324
291 289 287 280 278 271 263 252 249 249 248 243 241 237 233 231 231 230 229 230 230 229 228 229 231 235 239 241 244 247 247 250 255 259 262 264 271 278 283 293 300 308 313
292 290 289 281 281 277 269 260 257 255 253 250 245 240 238 236 235 233 233 233 232 231 230 229 232 237 240 242 244 246 248 251 253 255 257 258 263 270 274 279 288 297 296
290 289 287 280 278 276 270 268 265 264 259 257 253 247 243 244 242 238 237 236 235 234 231 231 233 237 240 243 245 246 248 251 250 248 249 253 257 263 264 267 273 278 275
288 288 285 282 279 277 273 272 270 267 262 261 259 254 249 247 244 244 242 240 238 236 235 234 234 236 240 243 246 247 247 248 245 242 243 246 250 254 253 255 257 258 252
286 285 284 280 279 276 274 272 270 269 265 265 262 257 256 254 251 247 246 245 241 239 239 236 235 236 239 242 244 246 246 243 240 238 238 241 243 243 242 243 245 238 232
287 285 283 279 275 274 273 270 267 266 265 263 261 258 259 260 257 253 251 248 246 244 242 239 237 237 238 239 241 242 241 239 237 233 234 234 235 235 233 231 230 226 221
289 288 285 281 278 274 273 270 268 267 264 263 261 259 259 260 259 256 255 253 249 247 244 242 239 237 237 237 236 237 236 236 234 232 232 230 229 229 227 224 221 218 212
294 290 287 284 282 278 275 273 270 269 266 266 264 262 260 259 259 258 257 255 250 248 245 243 239 238 237 236 234 232 232 233 232 231 228 227 225 224 223 221 217 213 208
299 295 291 287 284 282 278 275 273 272 270 267 265 264 263 261 259 256 255 257 254 251 246 242 239 237 238 237 234 231 230 230 230 228 226 225 223 220 218 218 216 211 207
303 301 298 295 291 288 285 281 277 275 273 271 268 266 264 261 259 257 257 257 255 253 248 244 241 238 236 238 236 232 229 228 228 226 224 224 222 219 217 218 218 211 209
311 309 307 304 301 297 292 288 284 280 276 273 271 269 266 262 259 257 257 256 254 251 249 245 243 241 237 238 238 234 230 228 226 225 224 223 221 219 218 216 214 211 208
315 314 312 310 308 305 301 296 291 286 281 276 273 271 268 264 260 258 256 254 252 250 247 245 244 242 238 236 235 233 231 230 227 225 224 224 221 219 219 217 215 211 206
322 321 319 317 315 312 308 304 298 292 285 280 278 274 271 266 262 259 255 253 250 248 247 243 243 241 238 236 236 234 232 231 228 225 222 223 221 219 219 217 215 212 208
331 329 327 325 321 318 316 312 305 299 292 285 281 279 274 270 264 259 255 253 249 247 245 243 241 239 239 237 235 233 231 232 229 224 222 222 223 222 220 217 214 211 209
335 335 334 332 328 326 324 322 317 310 304 296 289 283 277 272 267 261 257 253 250 246 245 244 243 240 239 237 236 233 230 230 230 226 223 223 223 222 221 218 214 211 211
341 341 340 339 336 333 331 330 328 322 315 308 298 291 284 277 271 262 256 253 250 247 243 241 241 240 239 237 235 232 229 227 226 225 225 225 225 223 221 219 216 215 215
348 347 347 346 343 340 339 340 339 334 327 319 309 300 290 284 278 267 259 254 250 246 244 241 239 238 237 236 234 232 229 226 226 226 226 225 224 224 221 221 220 220 219
351 353 353 352 349 346 345 343 343 341 337 330 322 312 300 291 284 275 265 258 251 247 244 240 238 237 236 235 233 231 229 226 225 225 226 225 224 224 223 221 222 223 221
351 353 354 353 352 349 347 345 344 342 340 336 329 321 310 299 288 278 270 263 254 248 245 239 237 235 234 232 232 231 230 227 226 226 227 225 224 225 225 224 224 224 223
351 351 351 352 352 352 349 347 346 345 344 341 335 328 321 308 294 282 274 266 258 251 246 240 236 233 232 230 230 229 231 229 229 228 228 226 226 226 226 225 225 226 226
350 351 351 353 355 355 353 353 351 349 348 346 343 338 331 319 305 294 281 271 262 255 248 242 236 231 230 229 229 228 228 229 229 229 228 229 228 227 227 227 227 227 227
352 354 355 356 358 358 358 357 356 354 354 352 350 348 342 333 322 308 296 278 267 259 253 244 237 232 230 229 229 228 228 229 231 230 231 232 230 228 228 229 229 228 228
355 356 358 359 1 1 0 359 360 359 359 359 357 355 351 345 339 328 312 291 273 263 255 244 236 233 230 229 229 230 230 231 232 231 231 232 232 230 229 229 231 230 229
355 358 360 2 3 4 3 3 2 2 1 2 2 3 1 358 353 346 333 310 288 270 258 243 236 234 232 230 229 230 231 232 231 232 233 232 232 232 232 231 232 231 229
353 358 2 4 6 7 6 6 5 5 5 5 6 8 8 7 4 360 353 340 314 284 261 244 236 234 231 230 229 230 230 232 232 233 234 235 234 233 233 234 233 232 232
Height
5878 5877 5876 5875 5874 5874 5873 5873 5873 5873 5874 5874 5874 5874 5874 5875 5875 5876 5876 5876 5877 5878 5878 5879 5879 5880 5880 5880 5880 5881 5881 5882 5882 5882 5882 5882 5882 5882 5881 5881 5880 5880 5879
5876 5875 5874 5873 5872 5872 5871 5871 5871 5871 5871 5871 5871 5872 5872 5872 5872 5873 5873 5874 5875 5875 5876 5876 5877 5877 5878 5878 5879 5879 5879 5880 5880 5880 5880 5880 5880 5880 5880 5880 5880 5879 5878
5873 5872 5872 5871 5870 5870 5869 5869 5868 5868 5868 5868 5868 5868 5869 5869 5869 5870 5870 5871 5872 5872 5873 5874 5874 5875 5876 5876 5876 5877 5877 5878 5878 5879 5879 5879 5879 5879 5879 5879 5879 5879 5878
5871 5870 5869 5868 5868 5867 5867 5866 5866 5865 5865 5865 5865 5865 5865 5866 5866 5866 5867 5868 5869 5869 5870 5871 5872 5872 5873 5874 5874 5875 5875 5876 5876 5877 5877 5877 5877 5877 5878 5878 5878 5878 5878
5869 5867 5866 5865 5865 5864 5864 5863 5862 5862 5862 5861 5861 5861 5861 5862 5862 5863 5863 5864 5865 5866 5867 5868 5869 5870 5870 5871 5872 5872 5873 5874 5874 5875 5875 5875 5876 5876 5876 5877 5877 5877 5877
5866 5864 5863 5863 5862 5861 5860 5859 5858 5858 5857 5857 5857 5857 5857 5857 5858 5858 5859 5860 5861 5862 5863 5864 5865 5867 5867 5868 5869 5870 5871 5871 5872 5873 5873 5874 5874 5874 5875 5875 5875 5876 5876
5862 5861 5860 5859 5858 5857 5856 5855 5854 5853 5853 5852 5852 5852 5852 5853 5854 5854 5855 5855 5856 5858 5859 5860 5862 5863 5864 5865 5866 5867 5868 5869 5870 5871 5871 5872 5872 5873 5873 5874 5874 5875 5875
5859 5857 5856 5854 5853 5852 5851 5850 5849 5848 5848 5847 5847 5847 5847 5847 5848 5849 5850 5851 5852 5853 5855 5856 5858 5859 5860 5862 5863 5864 5866 5867 5868 5869 5869 5870 5870 5871 5872 5873 5873 5874 5874
5855 5853 5851 5850 5849 5847 5846 5845 5844 5843 5842 5841 5841 5841 5841 5841 5842 5843 5845 5846 5847 5848 5850 5851 5853 5855 5856 5858 5859 5861 5863 5864 5865 5866 5867 5868 5869 5869 5870 5871 5872 5873 5874
5851 5849 5848 5846 5844 5842 5841 5840 5838 5837 5836 5835 5835 5835 5835 5836 5836 5837 5839 5840 5842 5843 5844 5846 5848 5850 5852 5854 5856 5857 5859 5861 5862 5864 5865 5866 5867 5867 5868 5869 5870 5871 5872
5848 5846 5844 5842 5840 5838 5836 5835 5833 5832 5830 5829 5829 5828 5829 5829 5830 5831 5832 5834 5836 5837 5839 5841 5843 5845 5847 5849 5851 5853 5855 5857 5859 5861 5862 5864 5865 5866 5866 5867 5869 5870 5871
5845 5843 5840 5838 5836 5834 5832 5829 5828 5826 5825 5823 5823 5822 5822 5822 5823 5824 5826 5828 5830 5831 5833 5835 5837 5840 5842 5844 5847 5849 5851 5853 5856 5858 5860 5861 5862 5864 5865 5866 5867 5868 5870
5842 5840 5837 5835 5833 5830 5828 5825 5823 5821 5819 5818 5817 5816 5816 5816 5816 5817 5819 5821 5823 5825 5827 5829 5832 5834 5837 5839 5842 5844 5846 5849 5852 5854 5856 5858 5860 5861 5863 5864 5865 5867 5868
5840 5838 5835 5832 5830 5827 5824 5821 5819 5816 5814 5813 5811 5810 5809 5809 5810 5811 5812 5814 5816 5818 5820 5823 5826 5828 5831 5834 5837 5839 5842 5845 5847 5850 5852 5855 5857 5859 5860 5862 5863 5865 5867
5838 5836 5833 5830 5827 5824 5821 5818 5815 5812 5810 5808 5806 5804 5804 5803 5803 5804 5805 5807 5809 5811 5814 5817 5819 5822 5825 5828 5831 5834 5837 5840 5843 5846 5849 5851 5853 5856 5858 5859 5861 5863 5865
5837 5834 5831 5828 5825 5821 5818 5815 5812 5809 5806 5803 5801 5799 5798 5798 5798 5798 5799 5800 5802 5804 5807 5810 5813 5816 5819 5822 5826 5829 5832 5835 5838 5841 5844 5847 5850 5852 5854 5857 5858 5860 5862
5835 5832 5829 5826 5822 5819 5816 5812 5809 5805 5802 5799 5797 5795 5794 5793 5793 5793 5793 5794 5796 5798 5800 5803 5807 5810 5813 5816 5820 5824 5827 5830 5833 5836 5840 5843 5846 5848 5851 5853 5856 5858 5860
5834 5831 5828 5824 5821 5817 5814 5810 5806 5803 5799 5796 5793 5791 5789 5788 5788 5788 5788 5789 5790 5792 5794 5797 5800 5804 5807 5810 5814 5818 5821 5824 5828 5832 5835 5838 5841 5844 5847 5850 5852 5855 5857
5833 5830 5826 5823 5819 5816 5812 5808 5805 5801 5797 5793 5790 5788 5786 5785 5784 5783 5783 5784 5785 5787 5789 5791 5794 5797 5800 5804 5808 5812 5815 5819 5823 5826 5830 5833 5836 5840 5843 5846 5848 5851 5853
5832 5829 5825 5822 5818 5814 5810 5807 5803 5799 5795 5791 5788 5785 5783 5781 5780 5780 5779 5780 5780 5782 5783 5785 5788 5791 5794 5798 5802 5806 5810 5814 5817 5821 5824 5828 5831 5835 5838 5841 5844 5847 5850
5831 5828 5824 5821 5817 5813 5809 5805 5801 5797 5793 5790 5786 5783 5781 5778 5777 5776 5775 5775 5776 5777 5778 5780 5782 5785 5788 5792 5796 5800 5804 5808 5811 5815 5819 5823 5826 5829 5833 5836 5840 5843 5846
5830 5827 5823 5820 5816 5812 5808 5804 5799 5796 5792 5788 5784 5781 5778 5776 5774 5772 5772 5771 5771 5772 5773 5775 5777 5780 5783 5787 5790 5794 5799 5803 5806 5810 5813 5817 5820 5824 5828 5831 5835 5838 5841
5829 5826 5822 5819 5815 5811 5807 5803 5798 5795 5791 5787 5783 5780 5776 5773 5771 5769 5768 5768 5767 5768 5769 5770 5772 5775 5778 5781 5785 5789 5793 5797 5800 5804 5807 5811 5814 5818 5822 5825 5829 5832 5836
5828 5825 5822 5818 5814 5810 5806 5802 5798 5794 5790 5786 5782 5778 5775 5772 5769 5767 5766 5765 5764 5764 5765 5766 5768 5770 5773 5776 5779 5783 5787 5791 5794 5798 5802 5805 5808 5812 5816 5819 5823 5827 5830
5827 5825 5821 5818 5814 5810 5806 5802 5798 5793 5789 5785 5781 5778 5774 5771 5768 5766 5764 5763 5762 5761 5762 5763 5764 5767 5769 5772 5775 5778 5782 5785 5788 5792 5796 5799 5802 5806 5809 5813 5817 5820 5824
5827 5824 5821 5817 5814 5810 5806 5802 5798 5793 5789 5785 5781 5777 5774 5770 5767 5765 5763 5761 5760 5759 5760 5760 5761 5763 5765 5768 5771 5774 5777 5780 5783 5786 5790 5792 5796 5799 5803 5806 5810 5814 5817